Terminal Aerodrome Forecast
Issued by NWS

Home | Current Version | Previous Version | Text Only | Print | Product List | Glossary On
Versions: 1 2 3 4 5 6 7 8 9 10 11 12 13 14 15 16 17 18 19 20 21 22 23 24 25 26 27 28 29 30 31 32
000
FTUS44 KTSA 260300 AAC
TAFRVS
TAF AMD
KRVS 260336Z 2604/2624 VRB03KT 4SM BR OVC180
      TEMPO 2604/2606 2SM BR
     FM260600 20002KT 3SM BR OVC007
     FM261500 21005KT P6SM SCT250
     FM261800 18007KT P6SM SCT040=

USA.gov is the U.S. government's official web portal to all federal, state and local government web resources and services.